• In Uzbekistan
  • List of Countries
  • For 7 days
  • Water Temperature
  • Satellite Maps
  • Weather Map
  • Weather Widgets
  • user-avatar
    Login

    Hourly Weather Bangarmau

    Today, 19 September, Wednesday

    Time Temperature Precipitation Wind Pressure Humidity
    00:00 +28°C° 0 mm 1 mps 741 mmHg 59%
    01:00 +28°C° 0 mm 1 mps 741 mmHg 59%
    02:00 +27°C° 0 mm 1 mps 741 mmHg 60%
    03:00 +27°C° 0 mm 1 mps 741 mmHg 60%
    04:00 +27°C° 0 mm 1 mps 741 mmHg 61%
    05:00 +26°C° 0 mm 1 mps 741 mmHg 62%
    06:00 +28°C° 0 mm 1 mps 742 mmHg 58%
    07:00 +29°C° 0 mm 2 mps 742 mmHg 55%
    08:00 +30°C° 0 mm 2 mps 742 mmHg 51%
    09:00 +32°C° 0 mm 2 mps 742 mmHg 46%
    10:00 +35°C° 0 mm 3 mps 742 mmHg 41%
    11:00 +36°C° 0 mm 3 mps 742 mmHg 35%
    12:00 +37°C° 0 mm 3 mps 741 mmHg 34%
    13:00 +37°C° 0 mm 4 mps 741 mmHg 32%
    14:00 +38°C° 0 mm 4 mps 740 mmHg 31%
    15:00 +37°C° 0 mm 3 mps 740 mmHg 35%
    16:00 +36°C° 0 mm 2 mps 739 mmHg 39%
    17:00 +35°C° 0 mm 2 mps 739 mmHg 43%
    18:00 +34°C° 0 mm 2 mps 739 mmHg 44%
    19:00 +31°C° 0 mm 1 mps 740 mmHg 46%
    20:00 +30°C° 0 mm 1 mps 740 mmHg 47%
    21:00 +30°C° 0 mm 1 mps 740 mmHg 49%
    22:00 +29°C° 0 mm 1 mps 740 mmHg 50%
    23:00 +27°C° 0 mm 0 mps 740 mmHg 52%

    Tomorrow, 20 September, Thursday

    Time Temperature Precipitation Wind Pressure Humidity
    00:00 +27°C° 0 mm 0 mps 740 mmHg 53%
    01:00 +26°C° 0 mm 0 mps 740 mmHg 54%
    02:00 +26°C° 0 mm 0 mps 740 mmHg 55%
    03:00 +26°C° 0 mm 0 mps 740 mmHg 56%
    04:00 +25°C° 0 mm 0 mps 740 mmHg 57%
    05:00 +27°C° 0 mm 1 mps 740 mmHg 58%
    06:00 +28°C° 0 mm 1 mps 741 mmHg 56%
    07:00 +30°C° 0 mm 1 mps 741 mmHg 53%
    08:00 +31°C° 0 mm 1 mps 742 mmHg 51%
    09:00 +32°C° 0 mm 1 mps 742 mmHg 47%
    10:00 +34°C° 0 mm 1 mps 742 mmHg 42%
    11:00 +35°C° 0 mm 1 mps 742 mmHg 38%
    12:00 +36°C° 0 mm 1 mps 742 mmHg 36%
    13:00 +37°C° 0 mm 1 mps 741 mmHg 33%
    14:00 +37°C° 0 mm 1 mps 740 mmHg 31%
    15:00 +36°C° 0 mm 1 mps 740 mmHg 34%
    16:00 +36°C° 0 mm 1 mps 740 mmHg 38%
    17:00 +35°C° 0 mm 1 mps 740 mmHg 41%
    18:00 +35°C° 0 mm 2 mps 740 mmHg 43%
    19:00 +32°C° 0 mm 2 mps 741 mmHg 45%
    20:00 +31°C° 0 mm 2 mps 741 mmHg 48%
    21:00 +31°C° 0 mm 2 mps 741 mmHg 49%
    22:00 +31°C° 0 mm 2 mps 742 mmHg 51%
    23:00 +30°C° 0 mm 2 mps 742 mmHg 53%

    Day after tomorrow, 21 September, Friday

    Time Temperature Precipitation Wind Pressure Humidity
    00:00 +30°C° 0 mm 2 mps 741 mmHg 57%
    01:00 +30°C° 0 mm 3 mps 741 mmHg 61%
    02:00 +30°C° 0 mm 3 mps 741 mmHg 64%
    03:00 +29°C° 0 mm 3 mps 741 mmHg 70%
    04:00 +29°C° 0 mm 3 mps 741 mmHg 75%
    05:00 +29°C° 0 mm 4 mps 742 mmHg 80%
    06:00 +29°C° 0 mm 4 mps 742 mmHg 78%
    07:00 +30°C° 0 mm 5 mps 743 mmHg 77%
    08:00 +32°C° 0 mm 6 mps 744 mmHg 75%
    09:00 +33°C° 0 mm 6 mps 744 mmHg 71%
    10:00 +34°C° 0 mm 6 mps 744 mmHg 67%
    11:00 +34°C° 0 mm 6 mps 744 mmHg 62%
    12:00 +34°C° 0 mm 6 mps 743 mmHg 62%
    13:00 +34°C° 0 mm 6 mps 743 mmHg 62%
    14:00 +34°C° 0 mm 6 mps 742 mmHg 63%
    15:00 +33°C° 0 mm 6 mps 742 mmHg 66%
    16:00 +32°C° 0 mm 5 mps 742 mmHg 70%
    17:00 +30°C° 0 mm 4 mps 742 mmHg 74%
    18:00 +30°C° 0 mm 4 mps 742 mmHg 76%
    19:00 +30°C° 0 mm 4 mps 743 mmHg 77%
    20:00 +29°C° 0 mm 3 mps 743 mmHg 78%
    21:00 +29°C° 0.1 mm 3 mps 743 mmHg 79%
    22:00 +29°C° 0.1 mm 3 mps 744 mmHg 79%
    23:00 +29°C° 0.1 mm 3 mps 744 mmHg 79%

    22 September, Saturday

    Time Temperature Precipitation Wind Pressure Humidity
    00:00 +28°C° 0.5 mm 4 mps 743 mmHg 80%
    01:00 +28°C° 0.5 mm 4 mps 743 mmHg 81%
    02:00 +28°C° 0.5 mm 4 mps 742 mmHg 82%
    03:00 +27°C° 1.9 mm 5 mps 742 mmHg 83%
    04:00 +27°C° 1.9 mm 5 mps 742 mmHg 85%
    05:00 +26°C° 1.9 mm 6 mps 743 mmHg 87%
    06:00 +27°C° 1.8 mm 6 mps 743 mmHg 87%
    07:00 +27°C° 1.8 mm 6 mps 744 mmHg 87%
    08:00 +27°C° 1.8 mm 6 mps 744 mmHg 87%
    09:00 +28°C° 0.3 mm 6 mps 744 mmHg 83%
    10:00 +29°C° 0.3 mm 6 mps 744 mmHg 78%
    11:00 +32°C° 0.3 mm 7 mps 744 mmHg 74%
    12:00 +32°C° 0.7 mm 7 mps 743 mmHg 71%
    13:00 +33°C° 0.7 mm 7 mps 742 mmHg 69%
    14:00 +34°C° 0.7 mm 7 mps 741 mmHg 66%
    15:00 +33°C° 1.3 mm 6 mps 741 mmHg 69%
    16:00 +32°C° 1.3 mm 5 mps 741 mmHg 72%
    17:00 +30°C° 1.3 mm 5 mps 741 mmHg 75%
    18:00 +30°C° 0.7 mm 4 mps 741 mmHg 78%
    19:00 +29°C° 0.7 mm 4 mps 742 mmHg 80%
    20:00 +28°C° 0.7 mm 4 mps 742 mmHg 83%
    21:00 +28°C° 1.5 mm 4 mps 742 mmHg 83%
    22:00 +28°C° 1.5 mm 4 mps 742 mmHg 84%
    23:00 +28°C° 1.5 mm 3 mps 742 mmHg 84%

    23 September, Sunday

    Time Temperature Precipitation Wind Pressure Humidity
    00:00 +28°C° 1.8 mm 3 mps 742 mmHg 85%
    01:00 +28°C° 1.8 mm 3 mps 742 mmHg 86%
    02:00 +28°C° 1.8 mm 3 mps 741 mmHg 88%
    03:00 +28°C° 0.8 mm 3 mps 742 mmHg 88%
    04:00 +28°C° 0.8 mm 3 mps 742 mmHg 88%
    05:00 +27°C° 0.8 mm 3 mps 742 mmHg 88%
    06:00 +28°C° 0.9 mm 4 mps 743 mmHg 83%
    07:00 +29°C° 0.9 mm 4 mps 744 mmHg 79%
    08:00 +30°C° 0.9 mm 4 mps 744 mmHg 74%
    09:00 +32°C° 0.8 mm 4 mps 744 mmHg 70%
    10:00 +33°C° 0.8 mm 4 mps 744 mmHg 66%
    11:00 +34°C° 0.8 mm 4 mps 744 mmHg 62%
    12:00 +34°C° 0.4 mm 5 mps 743 mmHg 61%
    13:00 +34°C° 0.4 mm 5 mps 742 mmHg 60%
    14:00 +35°C° 0.4 mm 5 mps 742 mmHg 60%
    15:00 +34°C° 0.4 mm 5 mps 741 mmHg 64%
    16:00 +33°C° 0.4 mm 4 mps 741 mmHg 68%
    17:00 +32°C° 0.4 mm 4 mps 741 mmHg 73%
    18:00 +32°C° 0.1 mm 4 mps 742 mmHg 75%
    19:00 +30°C° 0.1 mm 3 mps 742 mmHg 77%
    20:00 +29°C° 0.1 mm 3 mps 743 mmHg 79%
    21:00 +29°C° 0.9 mm 3 mps 743 mmHg 80%
    22:00 +29°C° 0.9 mm 3 mps 743 mmHg 81%
    23:00 +29°C° 0.9 mm 3 mps 743 mmHg 81%

    24 September, Monday

    Time Temperature Precipitation Wind Pressure Humidity
    00:00 +28°C° 1.1 mm 3 mps 743 mmHg 83%
    01:00 +28°C° 1.1 mm 2 mps 742 mmHg 84%
    02:00 +28°C° 1.1 mm 2 mps 742 mmHg 85%
    03:00 +28°C° 1.1 mm 2 mps 742 mmHg 86%
    04:00 +28°C° 1.1 mm 2 mps 742 mmHg 86%
    05:00 +28°C° 1.1 mm 2 mps 742 mmHg 86%
    06:00 +29°C° 0.7 mm 2 mps 743 mmHg 82%
    07:00 +29°C° 0.7 mm 3 mps 743 mmHg 77%
    08:00 +30°C° 0.7 mm 3 mps 744 mmHg 73%
    09:00 +33°C° 0.3 mm 3 mps 744 mmHg 68%
    10:00 +34°C° 0.3 mm 3 mps 743 mmHg 63%
    11:00 +35°C° 0.3 mm 3 mps 743 mmHg 58%
    12:00 +35°C° 0.5 mm 3 mps 742 mmHg 57%
    13:00 +35°C° 0.5 mm 3 mps 742 mmHg 57%
    14:00 +35°C° 0.5 mm 3 mps 741 mmHg 56%
    15:00 +35°C° 0.4 mm 3 mps 741 mmHg 60%
    16:00 +34°C° 0.4 mm 3 mps 740 mmHg 65%
    17:00 +32°C° 0.4 mm 2 mps 740 mmHg 69%
    18:00 +31°C° 0.9 mm 2 mps 741 mmHg 72%
    19:00 +31°C° 0.9 mm 2 mps 741 mmHg 75%
    20:00 +30°C° 0.9 mm 2 mps 742 mmHg 77%
    21:00 +30°C° 0.2 mm 2 mps 742 mmHg 79%
    22:00 +29°C° 0.2 mm 2 mps 742 mmHg 80%
    23:00 +29°C° 0.2 mm 2 mps 742 mmHg 81%
    Show more